EW1337 Weather Reports


time (UTC)temp
C
wind
direction
speed
KPH
gust
KPH
rain 1hr
cm
rain 24hr
cm
rain mn
cm
humidity
%
barometer
mb
20260505200009 28 117 14.5 24.1 0.00 0.00 0.00 34 1014.7
20260505195506 29 0 0.0 27.4 0.00 0.00 0.00 35 1014.9
20260505195006 29 0 0.0 33.8 0.00 0.00 0.00 34 1014.9
20260505194506 29 172 3.2 33.8 0.00 0.00 0.00 35 1015.0
20260505194006 29 178 8.0 33.8 0.00 0.00 0.00 34 1015.2
20260505193007 30 166 14.5 24.1 0.00 0.00 0.00 34 1015.3
20260505192506 30 0 0.0 27.4 0.00 0.00 0.00 33 1015.4
20260505192006 30 150 8.0 27.4 0.00 0.00 0.00 34 1015.5
20260505191506 30 148 8.0 20.9 0.00 0.00 0.00 34 1015.5
20260505191006 30 145 3.2 24.1 0.00 0.00 0.00 34 1015.3
20260505190506 30 135 8.0 24.1 0.00 0.00 0.00 34 1015.7
20260505190010 29 134 8.0 20.9 0.00 0.00 0.00 34 1015.5
20260505185506 29 0 0.0 27.4 0.00 0.00 0.00 33 1015.4
20260505185006 30 151 8.0 27.4 0.00 0.00 0.00 31 1015.6
20260505184506 29 276 14.5 27.4 0.00 0.00 0.00 31 1015.6
20260505184006 29 264 8.0 20.9 0.00 0.00 0.00 31 1015.5
20260505183506 29 0 0.0 33.8 0.00 0.00 0.00 29 1015.6
20260505183006 29 201 8.0 33.8 0.00 0.00 0.00 30 1015.6
20260505182506 30 257 14.5 33.8 0.00 0.00 0.00 29 1015.9
20260505182006 30 0 0.0 20.9 0.00 0.00 0.00 31 1015.6
20260505181506 29 159 8.0 20.9 0.00 0.00 0.00 31 1015.8
20260505181006 29 120 11.3 24.1 0.00 0.00 0.00 34 1015.6
20260505180506 29 228 3.2 24.1 0.00 0.00 0.00 34 1015.8
20260505180009 29 232 8.0 24.1 0.00 0.00 0.00 34 1015.8
20260505175506 29 182 3.2 24.1 0.00 0.00 0.00 34 1015.7
20260505175006 29 0 0.0 20.9 0.00 0.00 0.00 35 1015.8
20260505174006 29 192 3.2 27.4 0.00 0.00 0.00 33 1015.9
20260505173506 29 210 3.2 27.4 0.00 0.00 0.00 33 1015.9
20260505173006 28 0 0.0 17.7 0.00 0.00 0.00 34 1016.1
20260505172506 28 192 8.0 20.9 0.00 0.00 0.00 35 1016.2
20260505172006 28 155 8.0 20.9 0.00 0.00 0.00 35 1016.1
20260505171506 28 0 0.0 24.1 0.00 0.00 0.00 36 1016.1
20260505171006 28 161 3.2 33.8 0.00 0.00 0.00 36 1016.1
20260505170506 28 155 8.0 33.8 0.00 0.00 0.00 36 1016.3
20260505170011 28 124 3.2 16.1 0.00 0.00 0.00 38 1016.4
20260505165506 27 121 3.2 16.1 0.00 0.00 0.00 38 1016.4
20260505165006 27 201 8.0 16.1 0.00 0.00 0.00 38 1016.6
20260505164505 27 166 8.0 20.9 0.00 0.00 0.00 39 1016.3
20260505163506 27 0 0.0 17.7 0.00 0.00 0.00 41 1016.5
20260505163009 26 0 0.0 16.1 0.00 0.00 0.00 42 1016.6
20260505162506 26 202 3.2 16.1 0.00 0.00 0.00 42 1016.7
20260505161506 26 249 3.2 20.9 0.00 0.00 0.00 43 1016.9
20260505161006 26 0 0.0 20.9 0.00 0.00 0.00 44 1016.9
20260505160506 25 219 3.2 20.9 0.00 0.00 0.00 45 1017.0
20260505153006 24 0 0.0 20.9 0.00 0.00 0.00 49 1017.1
20260505152506 24 0 0.0 20.9 0.00 0.00 0.00 50 1017.0
20260505152006 23 166 8.0 20.9 0.00 0.00 0.00 53 1016.9
20260505151506 23 0 0.0 17.7 0.00 0.00 0.00 53 1016.9
20260505151006 23 0 0.0 12.9 0.00 0.00 0.00 54 1017.0
20260505150506 23 0 0.0 16.1 0.00 0.00 0.00 54 1017.1
20260505125006 17 0 0.0 17.7 0.00 0.00 0.00 72 1017.4
20260505124506 17 218 8.0 17.7 0.00 0.00 0.00 72 1017.4
20260505124006 17 207 8.0 17.7 0.00 0.00 0.00 73 1017.4
20260505123505 17 261 3.2 20.9 0.00 0.00 0.00 73 1017.3
20260505123006 17 261 3.2 20.9 0.00 0.00 0.00 74 1017.2
20260505122505 17 0 0.0 24.1 0.00 0.00 0.00 75 1017.2
20260505122006 16 0 0.0 24.1 0.00 0.00 0.00 76 1017.2
20260505121505 16 201 3.2 12.9 0.00 0.00 0.00 76 1017.2
20260505121006 16 0 0.0 12.9 0.00 0.00 0.00 76 1017.4
20260505120506 16 0 0.0 16.1 0.00 0.00 0.00 77 1017.3
20260505115506 16 0 0.0 12.9 0.00 0.00 0.00 77 1017.2
20260505115006 16 0 0.0 12.9 0.00 0.00 0.00 78 1017.3
20260505114506 16 202 3.2 12.9 0.00 0.00 0.00 78 1017.3
20260505114006 16 0 0.0 12.9 0.00 0.00 0.00 78 1017.1
20260505113506 16 0 0.0 12.9 0.00 0.00 0.00 78 1017.3
20260505113007 15 275 8.0 12.9 0.00 0.00 0.00 78 1017.2
20260505112506 15 0 0.0 12.9 0.00 0.00 0.00 78 1017.1
20260505112006 15 0 0.0 6.4 0.00 0.00 0.00 78 1017.0
20260505111006 15 0 0.0 12.9 0.00 0.00 0.00 78 1017.0
20260505110506 15 0 0.0 9.7 0.00 0.00 0.00 78 1017.0
20260505102006 15 175 3.2 9.7 0.00 0.00 0.00 77 1016.5
20260505101506 15 0 0.0 9.7 0.00 0.00 0.00 77 1016.3
20260505101006 15 0 0.0 9.7 0.00 0.00 0.00 76 1016.3
20260505100506 15 0 0.0 9.7 0.00 0.00 0.00 76 1016.1
20260505095506 15 0 0.0 6.4 0.00 0.00 0.00 76 1016.1
20260505095006 15 0 0.0 9.7 0.00 0.00 0.00 76 1016.1
20260505094506 15 0 0.0 9.7 0.00 0.00 0.00 75 1016.1
20260505094006 15 193 3.2 9.7 0.00 0.00 0.00 75 1015.9
20260505093506 15 0 0.0 9.7 0.00 0.00 0.00 75 1016.0
20260505092506 16 0 0.0 12.9 0.00 0.00 0.00 75 1015.8
20260505091005 16 177 3.2 12.9 0.00 0.00 0.00 74 1015.9
20260505090010 16 0 0.0 16.1 0.00 0.00 0.00 73 1015.8
20260505085506 16 239 3.2 16.1 0.00 0.00 0.00 73 1015.7
20260505084006 16 0 0.0 9.7 0.00 0.00 0.00 72 1015.6
20260505083506 16 0 0.0 9.7 0.00 0.00 0.00 72 1015.8
20260505083006 16 206 3.2 9.7 0.00 0.00 0.00 71 1015.7
20260505082505 16 193 3.2 9.7 0.00 0.00 0.00 71 1015.8
20260505081006 16 0 0.0 9.7 0.00 0.00 0.00 70 1015.6
20260505080506 16 0 0.0 9.7 0.00 0.00 0.00 70 1015.7
20260505080009 16 0 0.0 6.4 0.00 0.00 0.00 70 1015.5
20260505075506 16 0 0.0 0.0 0.00 0.00 0.00 69 1015.7
20260505075006 16 0 0.0 3.2 0.00 0.00 0.00 69 1015.7
20260505074506 16 0 0.0 9.7 0.00 0.00 0.00 69 1015.6
20260505074006 16 0 0.0 9.7 0.00 0.00 0.00 69 1015.6
20260505073505 16 0 0.0 9.7 0.00 0.00 0.00 69 1015.4
20260505073006 16 0 0.0 12.9 0.00 0.00 0.00 69 1015.4
20260505072505 17 0 0.0 12.9 0.00 0.00 0.00 68 1015.3
20260505072005 17 0 0.0 16.1 0.00 0.00 0.00 68 1015.3
20260505071005 17 0 0.0 9.7 0.00 0.00 0.00 68 1015.3
20260505070009 17 0 0.0 9.7 0.00 0.00 0.00 67 1015.1
20260505065506 17 0 0.0 9.7 0.00 0.00 0.00 67 1015.1
20260505065005 17 0 0.0 6.4 0.00 0.00 0.00 67 1015.2
20260505064506 17 0 0.0 3.2 0.00 0.00 0.00 66 1015.2
20260505064006 17 0 0.0 9.7 0.00 0.00 0.00 66 1015.2
20260505063506 17 0 0.0 9.7 0.00 0.00 0.00 66 1015.2
20260505063006 17 0 0.0 3.2 0.00 0.00 0.00 65 1015.3
20260505062006 17 0 0.0 6.4 0.00 0.00 0.00 65 1015.3
20260505061506 17 0 0.0 3.2 0.00 0.00 0.00 65 1015.3
20260505061006 17 0 0.0 3.2 0.00 0.00 0.00 65 1015.4
20260505060506 17 0 0.0 3.2 0.00 0.00 0.00 64 1015.5
20260505055506 17 0 0.0 9.7 0.00 0.00 0.00 64 1015.6
20260505054006 17 0 0.0 0.0 0.00 0.00 0.00 63 1015.6
20260505053506 18 0 0.0 6.4 0.00 0.00 0.00 63 1015.6
20260505053006 18 0 0.0 9.7 0.00 0.00 0.00 63 1015.8
20260505052506 18 0 0.0 9.7 0.00 0.00 0.00 63 1015.5
20260505052006 18 0 0.0 0.0 0.00 0.00 0.00 63 1015.6
20260505051506 18 0 0.0 12.9 0.00 0.00 0.00 63 1015.7
20260505051006 18 0 0.0 12.9 0.00 0.00 0.00 63 1015.7
20260505050506 18 0 0.0 9.7 0.00 0.00 0.00 63 1015.7
20260505041506 18 0 0.0 9.7 0.00 0.00 0.00 60 1015.5
20260505041005 18 0 0.0 3.2 0.00 0.00 0.00 60 1015.6
20260505040019 18 0 0.0 3.2 0.00 0.00 0.00 59 1015.5
20260505035506 18 0 0.0 17.7 0.00 0.00 0.00 59 1015.4
20260505035005 18 0 0.0 17.7 0.00 0.00 0.00 59 1015.7
20260505034506 18 295 3.2 17.7 0.00 0.00 0.00 59 1015.4
20260505033506 19 0 0.0 6.4 0.00 0.00 0.00 59 1015.3
20260505032005 19 0 0.0 12.9 0.00 0.00 0.00 59 1015.4
20260505031506 19 0 0.0 12.9 0.00 0.00 0.00 60 1015.2
20260505031006 19 0 0.0 9.7 0.00 0.00 0.00 60 1015.3
20260505030506 19 0 0.0 9.7 0.00 0.00 0.00 60 1015.3
20260505030011 19 0 0.0 9.7 0.00 0.00 0.00 60 1015.6
20260505025506 19 0 0.0 16.1 0.00 0.00 0.00 60 1015.4
20260505025006 19 0 0.0 16.1 0.00 0.00 0.00 60 1015.4
20260505024505 19 122 3.2 16.1 0.00 0.00 0.00 60 1015.2
20260505024006 20 0 0.0 6.4 0.00 0.00 0.00 60 1015.3
20260505023505 20 0 0.0 6.4 0.00 0.00 0.00 60 1015.3
20260505023006 20 0 0.0 9.7 0.00 0.00 0.00 60 1015.3
20260505022006 20 0 0.0 20.9 0.00 0.00 0.00 60 1015.3
20260505021506 20 0 0.0 20.9 0.00 0.00 0.00 60 1015.3
20260505021006 20 0 0.0 9.7 0.00 0.00 0.00 60 1015.2
20260505020505 20 0 0.0 9.7 0.00 0.00 0.00 60 1015.4
20260505020009 20 0 0.0 9.7 0.00 0.00 0.00 60 1015.4
20260505015505 20 0 0.0 12.9 0.00 0.00 0.00 59 1015.4
20260505015006 20 0 0.0 12.9 0.00 0.00 0.00 59 1015.2
20260505014505 20 0 0.0 12.9 0.00 0.00 0.00 59 1015.3
20260505014006 20 0 0.0 9.7 0.00 0.00 0.00 59 1015.2
20260505013506 20 0 0.0 9.7 0.00 0.00 0.00 59 1015.1
20260505012506 20 0 0.0 20.9 0.00 0.00 0.00 59 1015.0
20260505012006 20 0 0.0 20.9 0.00 0.00 0.00 59 1015.0
20260505011506 20 0 0.0 9.7 0.00 0.00 0.00 59 1014.8
20260505011006 20 0 0.0 6.4 0.00 0.00 0.00 58 1014.8
20260505010009 20 0 0.0 16.1 0.00 0.00 0.00 58 1014.7
20260505004506 21 0 0.0 9.7 0.00 0.00 0.00 58 1014.5
20260505004006 21 0 0.0 12.9 0.00 0.00 0.00 57 1014.5
20260505003505 21 0 0.0 12.9 0.00 0.00 0.00 57 1014.5
20260505003006 21 0 0.0 9.7 0.00 0.00 0.00 57 1014.3
20260505002506 21 0 0.0 12.9 0.00 0.00 0.00 57 1014.3
20260505002006 21 0 0.0 12.9 0.00 0.00 0.00 57 1014.5
20260505001505 21 0 0.0 12.9 0.00 0.00 0.00 56 1014.5
20260505001006 21 0 0.0 3.2 0.00 0.00 0.00 56 1014.3
20260505000506 21 0 0.0 0.0 0.00 0.00 0.00 55 1014.2
20260504235506 21 0 0.0 0.0 0.00 0.00 0.00 54 1014.1
20260504234505 22 0 0.0 12.9 0.00 0.00 0.00 53 1014.0
20260504234006 22 0 0.0 20.9 0.00 0.00 0.00 53 1013.9
20260504233505 22 0 0.0 20.9 0.00 0.00 0.00 52 1013.9
20260504233006 22 0 0.0 20.9 0.00 0.00 0.00 52 1013.8
20260504232506 22 182 3.2 20.9 0.00 0.00 0.00 52 1013.7
20260504232005 22 208 3.2 16.1 0.00 0.00 0.00 52 1013.7
20260504231506 22 0 0.0 17.7 0.00 0.00 0.00 52 1013.6
20260504231006 22 142 3.2 17.7 0.00 0.00 0.00 52 1013.6
20260504230505 22 0 0.0 16.1 0.00 0.00 0.00 51 1013.6
20260504230009 22 0 0.0 20.9 0.00 0.00 0.00 51 1013.5
20260504225505 22 0 0.0 20.9 0.00 0.00 0.00 51 1013.4
20260504225006 23 123 3.2 17.7 0.00 0.00 0.00 51 1013.3
20260504224506 23 0 0.0 17.7 0.00 0.00 0.00 51 1013.3
20260504224006 23 149 3.2 17.7 0.00 0.00 0.00 50 1013.3
20260504223505 23 0 0.0 17.7 0.00 0.00 0.00 49 1013.3
20260504223007 23 154 3.2 20.9 0.00 0.00 0.00 50 1013.2
20260504222506 23 132 3.2 33.8 0.00 0.00 0.00 49 1013.1
20260504221505 23 0 0.0 27.4 0.00 0.00 0.00 47 1013.1
20260504220506 24 166 8.0 37.0 0.00 0.00 0.00 45 1013.3
20260504220009 25 0 0.0 27.4 0.00 0.00 0.00 44 1013.2
20260504215505 25 0 0.0 27.4 0.00 0.00 0.00 42 1013.2
20260504215006 25 0 0.0 27.4 0.00 0.00 0.00 41 1013.1
20260504214506 25 144 20.9 27.4 0.00 0.00 0.00 38 1013.2
20260504214005 26 186 3.2 24.1 0.00 0.00 0.00 33 1013.3
20260504213506 26 213 3.2 17.7 0.00 0.00 0.00 28 1013.3
20260504213006 26 0 0.0 24.1 0.00 0.00 0.00 27 1013.2
20260504212505 26 0 0.0 24.1 0.00 0.00 0.00 28 1013.2
20260504212006 26 150 3.2 20.9 0.00 0.00 0.00 30 1013.2
20260504211505 26 0 0.0 20.9 0.00 0.00 0.00 29 1013.2
20260504211006 26 235 8.0 20.9 0.00 0.00 0.00 30 1013.2
20260504210009 26 206 3.2 24.1 0.00 0.00 0.00 29 1013.2
20260504205505 26 203 3.2 24.1 0.00 0.00 0.00 28 1013.2
20260504205006 26 220 11.3 24.1 0.00 0.00 0.00 28 1013.3
20260504204006 26 182 8.0 17.7 0.00 0.00 0.00 28 1013.3
20260504203506 26 0 0.0 16.1 0.00 0.00 0.00 28 1013.4
20260504203006 26 0 0.0 20.9 0.00 0.00 0.00 28 1013.3
20260504202505 26 204 11.3 30.6 0.00 0.00 0.00 28 1013.4
20260504201506 26 212 11.3 40.2 0.00 0.00 0.00 27 1013.4
20260504201005 26 225 3.2 40.2 0.00 0.00 0.00 28 1013.5
20260504200506 26 268 14.5 46.7 0.00 0.00 0.00 28 1013.5